Aberdeen / Amory, MS

7:25 PM CST on December 13, 2019 (GMT -0600)
Aberdeen / Amory

Weather History for KM40 - June, 2019

Change the Weather History Date:

Wednesday, June 12, 2019

  Actual Average (KCBM) Record (KCBM)
Temperature  
Mean Temperature 68 °F -  
Max Temperature 82 °F 85 °F 96 °F (2006)
Min Temperature 55 °F 66 °F 57 °F (2019)
Cooling Degree Days 4    
Growing Degree Days 18 (Base 50)    
Moisture  
Dew Point 67 °F    
Average Humidity 100    
Maximum Humidity 100    
Minimum Humidity 100    
Precipitation  
Precipitation 0.00 in - - ()
Sea Level Pressure  
Sea Level Pressure 29.95 in    
Wind  
Wind Speed 2 mph ()    
Max Wind Speed 10 mph    
Max Gust Speed 15 mph    
Visibility 9.1 miles    
Events      
Averages and records for this station are not official NWS values.
T = Trace of Precipitation, MM = Missing Value Source: Averaged Metar Reports

Daily Weather History Graph

Daily Weather History Graph

Search for Another Location

Airport or City:

Astronomy

Jun. 12, 2019 Rise Set
Actual Time 5:42 AM CDT 8:05 PM CDT
Civil Twilight 5:13 AM CDT 8:34 PM CDT
Nautical Twilight 4:37 AM CDT 9:10 PM CDT
Astronomical Twilight 3:58 AM CDT 9:49 PM CDT
Moon 3:26 PM CDT (6/12) 2:40 AM CDT (6/12)
Length of Visible Light 15h 20m
Length of Day
14h 22m
Waxing Gibbous, 77% of the Moon is Illuminated
Jun 12
Waxing Gibbous
Jun 17
Full
Jun 25
Last Quarter
Jul 2
New
Jul 9
First Quarter

Hourly Weather History & Observations

Time (CDT) Temp. Heat Index Dew Point Humidity Pressure Visibility Wind Dir Wind Speed Gust Speed Precip Events Conditions
12:15 AM 57.2 °F - 57.2 °F 100% 30.02 in 10.0 mi Calm Calm - N/A   Clear
12:35 AM 57.2 °F - 57.2 °F 100% 30.00 in 10.0 mi Calm Calm - N/A   Clear
12:55 AM 57.2 °F - 57.2 °F 100% 30.00 in 10.0 mi Calm Calm - N/A   Clear
1:15 AM 55.4 °F - 55.4 °F 100% 29.99 in 10.0 mi Calm Calm - N/A   Clear
1:35 AM 57.2 °F - 57.2 °F 100% 29.99 in 10.0 mi NE 3.5 mph - N/A   Clear
1:55 AM 57.2 °F - 57.2 °F 100% 29.98 in 10.0 mi Calm Calm - N/A   Clear
2:15 AM 57.2 °F - 57.2 °F 100% 29.98 in 10.0 mi Calm Calm - N/A   Clear
2:35 AM 57.2 °F - 57.2 °F 100% 29.98 in 10.0 mi Calm Calm - N/A   Clear
2:55 AM 57.2 °F - 57.2 °F 100% 29.97 in 10.0 mi Calm Calm - N/A   Clear
3:15 AM 57.2 °F - 57.2 °F 100% 29.97 in 8.0 mi Calm Calm - N/A   Clear
3:35 AM 57.2 °F - 57.2 °F 100% 29.97 in 9.0 mi Calm Calm - N/A   Clear
3:55 AM 55.4 °F - 55.4 °F 100% 29.97 in 10.0 mi Calm Calm - N/A   Clear
4:15 AM 55.4 °F - 55.4 °F 100% 29.96 in 10.0 mi Calm Calm - N/A   Clear
4:35 AM - - - N/A% 29.97 in 10.0 mi Calm Calm - N/A   Clear
4:55 AM 57.2 °F - 57.2 °F 100% 29.97 in 9.0 mi Calm Calm - N/A   Clear
5:15 AM 55.4 °F - 55.4 °F 100% 29.98 in 10.0 mi Calm Calm - N/A   Clear
5:35 AM 57.2 °F - 57.2 °F 100% 29.98 in 10.0 mi Calm Calm - N/A   Clear
5:55 AM 57.2 °F - 57.2 °F 100% 29.98 in 10.0 mi Calm Calm - N/A   Clear
6:15 AM 57.2 °F - 57.2 °F 100% 29.98 in 10.0 mi Calm Calm - N/A   Clear
6:35 AM - - - N/A% 29.97 in 10.0 mi Calm Calm - N/A   Clear
6:55 AM 59.0 °F - 59.0 °F 100% 29.96 in 10.0 mi Calm Calm - N/A   Clear
7:15 AM 59.0 °F - 59.0 °F 100% 29.96 in 10.0 mi Calm Calm - N/A   Clear
7:35 AM 60.8 °F - 60.8 °F 100% 29.96 in 9.0 mi Calm Calm - N/A   Clear
7:55 AM 60.8 °F - 60.8 °F 100% 29.97 in 10.0 mi North 3.5 mph - N/A   Clear
8:15 AM 60.8 °F - 60.8 °F 100% 29.96 in 8.0 mi Calm Calm - N/A   Clear
8:35 AM 62.6 °F - 62.6 °F 100% 29.96 in 10.0 mi Calm Calm - N/A   Clear
9:15 AM 64.4 °F - 64.4 °F 100% 29.96 in 9.0 mi Calm Calm - N/A   Clear
9:35 AM 64.4 °F - 64.4 °F 100% 29.96 in 9.0 mi Calm Calm - N/A   Clear
9:55 AM 64.4 °F - 64.4 °F 100% 29.97 in 5.0 mi NW 4.6 mph - N/A   Clear
10:15 AM 68.0 °F - 68.0 °F 100% 29.98 in 9.0 mi Variable 3.5 mph - N/A   Clear
10:35 AM 68.0 °F - 68.0 °F 100% 29.98 in 8.0 mi Calm Calm - N/A   Clear
11:15 AM 73.4 °F - 73.4 °F 100% 29.98 in 6.0 mi Variable 5.8 mph - N/A   Clear
11:35 AM 75.2 °F - 75.2 °F 100% 29.97 in 8.0 mi Variable 5.8 mph - N/A   Clear
11:55 AM 77.0 °F - 77.0 °F 100% 29.97 in 9.0 mi Calm Calm - N/A   Clear
12:15 PM 78.8 °F - 78.8 °F 100% 29.96 in 9.0 mi WSW 8.1 mph 15.0 mph N/A   Clear
12:35 PM 78.8 °F - 78.8 °F 100% 29.95 in 10.0 mi NW 8.1 mph - N/A   Clear
12:55 PM 78.8 °F - 78.8 °F 100% 29.94 in 6.0 mi SW 8.1 mph - N/A   Clear
1:15 PM 80.6 °F 89.3 °F 80.6 °F 100% 29.93 in 9.0 mi SSW 8.1 mph 15.0 mph N/A   Clear
1:35 PM 80.6 °F 89.3 °F 80.6 °F 100% 29.92 in 8.0 mi Variable 6.9 mph - N/A   Clear
1:55 PM 80.6 °F 89.3 °F 80.6 °F 100% 29.92 in 7.0 mi Calm Calm 11.5 mph N/A   Clear
2:15 PM 80.6 °F 89.3 °F 80.6 °F 100% 29.92 in 9.0 mi Variable 4.6 mph - N/A   Clear
3:15 PM 82.4 °F 96.1 °F 82.4 °F 100% 29.91 in 6.0 mi Variable 5.8 mph - N/A   Clear
3:35 PM 82.4 °F 96.1 °F 82.4 °F 100% 29.90 in 8.0 mi Variable 6.9 mph 13.8 mph N/A   Clear
3:55 PM 82.4 °F 96.1 °F 82.4 °F 100% 29.89 in 9.0 mi WSW 9.2 mph - N/A   Clear
4:15 PM 82.4 °F 96.1 °F 82.4 °F 100% 29.88 in 9.0 mi WNW 10.4 mph - N/A   Clear
4:35 PM 82.4 °F 96.1 °F 82.4 °F 100% 29.88 in 10.0 mi WNW 9.2 mph - N/A   Clear
4:55 PM 82.4 °F 96.1 °F 82.4 °F 100% 29.89 in 9.0 mi West 5.8 mph - N/A   Clear
5:15 PM 82.4 °F 96.1 °F 82.4 °F 100% 29.88 in 10.0 mi WNW 8.1 mph - N/A   Clear
5:55 PM 80.6 °F 89.3 °F 80.6 °F 100% 29.89 in 7.0 mi Variable 5.8 mph - N/A   Clear
6:15 PM 80.6 °F 89.3 °F 80.6 °F 100% 29.89 in 10.0 mi Variable 6.9 mph - N/A   Clear
6:35 PM 78.8 °F - 78.8 °F 100% 29.90 in 10.0 mi West 6.9 mph - N/A   Clear
6:55 PM 78.8 °F - 78.8 °F 100% 29.90 in 10.0 mi WNW 6.9 mph - N/A   Clear
7:15 PM 77.0 °F - 77.0 °F 100% 29.91 in 9.0 mi WNW 3.5 mph - N/A   Clear
7:35 PM 75.2 °F - 75.2 °F 100% 29.91 in 9.0 mi Calm Calm - N/A   Clear
7:55 PM 73.4 °F - 73.4 °F 100% 29.91 in 10.0 mi Calm Calm - N/A   Clear
8:15 PM 69.8 °F - 69.8 °F 100% 29.91 in 10.0 mi Calm Calm - N/A   Clear
8:35 PM 66.2 °F - 66.2 °F 100% 29.92 in 9.0 mi Calm Calm - N/A   Clear
8:55 PM 64.4 °F - 64.4 °F 100% 29.92 in 10.0 mi Calm Calm - N/A   Clear
9:15 PM 64.4 °F - 64.4 °F 100% 29.93 in 6.0 mi Calm Calm - N/A   Clear
9:35 PM 62.6 °F - 62.6 °F 100% 29.93 in 8.0 mi Calm Calm - N/A   Clear
9:55 PM 62.6 °F - 62.6 °F 100% 29.94 in 9.0 mi Calm Calm - N/A   Clear
10:15 PM 60.8 °F - 60.8 °F 100% 29.95 in 8.0 mi Calm Calm - N/A   Clear
10:35 PM 60.8 °F - 60.8 °F 100% 29.96 in 10.0 mi Calm Calm - N/A   Clear
10:55 PM 60.8 °F - 60.8 °F 100% 29.96 in 10.0 mi Calm Calm - N/A   Clear
11:15 PM 60.8 °F - 60.8 °F 100% 29.96 in 10.0 mi Calm Calm - N/A   Mostly Cloudy
11:35 PM 60.8 °F - 60.8 °F 100% 29.96 in 10.0 mi Calm Calm - N/A   Mostly Cloudy
11:55 PM 60.8 °F - 60.8 °F 100% 29.96 in 10.0 mi Calm Calm - N/A   Mostly Cloudy